Change the Weather History Date:

Tuesday, August 6, 2013

  Actual Average Record
Temperature  
Mean Temperature 78 °F 79 °F  
Max Temperature 84 °F 89 °F 100 °F (1918)
Min Temperature 72 °F 70 °F 54 °F (1948)
Degree Days  
Heating Degree Days 0 0  
Month to date heating degree days 0 0  
Since 1 June heating degree days 0 5  
Since 1 July heating degree days 0 0  
Cooling Degree Days 13 14  
Month to date cooling degree days 66 84  
Year to date cooling degree days 1003 1025  
Since 1 June cooling degree days 775 851  
Growing Degree Days 28 (Base 50)    
Moisture  
Dew Point 66 °F    
Average Humidity 73    
Maximum Humidity 88    
Minimum Humidity 58    
Precipitation  
Precipitation T in 0.12 in 1.66 in (1976)
Month to date precipitation 0.01 0.73  
Year to date precipitation 28.62 28.62  
Snow  
Snow 0.00 in 0.00 in - ()
Month to date snowfall 0.0 0.0  
Since 1 June snowfall 0.0 0.0  
Since 1 July snowfall 0.0 0.0  
Snow Depth 0.00 in    
Sea Level Pressure  
Sea Level Pressure 29.93 in    
Wind  
Wind Speed 5 mph (SSE)    
Max Wind Speed 10 mph    
Max Gust Speed 14 mph    
Visibility 9 miles    
Events Rain    
T = Trace of Precipitation, MM = Missing Value Source: NWS Daily Summary

Daily Weather History Graph

Daily Weather History Graph

Search for Another Location

Airport or City:

Trip Planner

Search our weather history database for the weather conditions in past years. The results will help you decide how hot, cold, wet, or windy it might be!

Date:

Astronomy

Aug. 06, 2013 Rise Set
Actual Time 6:50 AM EDT 8:46 PM EDT
Civil Twilight 6:21 AM EDT 9:15 PM EDT
Nautical Twilight 5:46 AM EDT 9:50 PM EDT
Astronomical Twilight 5:08 AM EDT 10:28 PM EDT
Moon 6:39 AM EDT (8/6) 8:22 PM EDT (8/6)
Length of Visible Light 14h 54m
Length of Day
13h 56m
Waning Crescent, 0% of the Moon is Illuminated
Aug 6
Waning Crescent
Aug 6
New
Aug 14
First Quarter
Aug 20
Full
Aug 28
Last Quarter

Hourly Weather History & Observations

Time (EDT) Temp. Heat Index Dew Point Humidity Pressure Visibility Wind Dir Wind Speed Gust Speed Precip Events Conditions
12:56 AM 75.0 °F - 59.0 °F 57% 29.95 in 10.0 mi South 4.6 mph - N/A   Overcast
1:56 AM 75.0 °F - 59.0 °F 57% 29.94 in 10.0 mi Calm Calm - N/A   Overcast
2:56 AM 73.9 °F - 60.1 °F 62% 29.94 in 10.0 mi SSE 4.6 mph - N/A   Overcast
3:56 AM 73.9 °F - 62.1 °F 66% 29.94 in 6.0 mi East 6.9 mph - 0.00 in Rain Light Rain
4:56 AM 73.9 °F - 62.1 °F 66% 29.91 in 10.0 mi East 4.6 mph - 0.00 in   Overcast
5:56 AM 73.0 °F - 62.1 °F 68% 29.92 in 10.0 mi ESE 3.5 mph - N/A   Overcast
6:56 AM 73.0 °F - 62.1 °F 68% 29.94 in 10.0 mi ESE 3.5 mph - N/A   Overcast
7:56 AM 73.0 °F - 62.1 °F 68% 29.94 in 10.0 mi East 5.8 mph - N/A   Overcast
8:56 AM 73.0 °F - 63.0 °F 71% 29.96 in 10.0 mi East 3.5 mph - N/A   Overcast
9:56 AM 75.0 °F - 64.0 °F 69% 29.95 in 10.0 mi SE 4.6 mph - N/A   Overcast
10:35 AM 77.0 °F - 64.4 °F 65% 29.97 in 10.0 mi SE 5.8 mph - N/A   Overcast
10:56 AM 77.0 °F - 64.9 °F 66% 29.96 in 10.0 mi SSE 6.9 mph - N/A   Overcast
11:12 AM 78.8 °F - 64.4 °F 61% 29.96 in 10.0 mi SSE 5.8 mph - N/A   Overcast
11:56 AM 80.1 °F 82.1 °F 66.0 °F 62% 29.95 in 10.0 mi Calm Calm - N/A   Overcast
12:56 PM 81.0 °F 83.3 °F 66.9 °F 62% 29.94 in 10.0 mi Calm Calm - N/A   Overcast
1:56 PM 84.0 °F 88.4 °F 70.0 °F 63% 29.93 in 10.0 mi SW 5.8 mph - N/A   Overcast
2:56 PM 82.0 °F 85.9 °F 70.0 °F 67% 29.92 in 8.0 mi SSW 9.2 mph - N/A   Overcast
3:56 PM 82.9 °F 87.0 °F 70.0 °F 65% 29.92 in 9.0 mi Calm Calm - N/A   Overcast
4:56 PM 82.9 °F 87.5 °F 71.1 °F 67% 29.91 in 6.0 mi SE 4.6 mph - N/A   Haze
5:56 PM 82.9 °F 87.5 °F 71.1 °F 67% 29.91 in 7.0 mi South 5.8 mph - N/A   Overcast
6:56 PM 82.9 °F 87.0 °F 70.0 °F 65% 29.91 in 6.0 mi SSE 6.9 mph - N/A   Haze
7:56 PM 82.0 °F 86.3 °F 71.1 °F 69% 29.91 in 9.0 mi SSE 8.1 mph - N/A   Mostly Cloudy
8:56 PM 81.0 °F 85.2 °F 72.0 °F 74% 29.91 in 9.0 mi South 8.1 mph - N/A   Mostly Cloudy
9:56 PM 80.1 °F 84.2 °F 73.0 °F 79% 29.92 in 9.0 mi South 6.9 mph - N/A   Mostly Cloudy
10:56 PM 77.0 °F - 73.0 °F 88% 29.92 in 8.0 mi SW 5.8 mph - N/A   Scattered Clouds
11:56 PM 78.1 °F - 73.0 °F 84% 29.92 in 7.0 mi South 4.6 mph - N/A   Scattered Clouds